Location: Barrialito
(10.3588°N, 66.9747°W)
Time: 16:25:31
(UTC+00:00)

Cosmos 1862 Rocket - Pass Details

Date: 10 July 2022
Orbit: 603 x 633 km, 82.5° (Epoch: 13 August)

Event Time Altitude Azimuth Distance (km) Brightness Sun altitude
Rises 08:55:24 0° 335° (NNW) 2,849 7.0 -18.0°
Reaches altitude 10° 08:57:56 10° 321° (NW) 1,949 6.0 -17.5°
Enters shadow 09:00:28 22° 287° (WNW) 1,337 4.9 -16.9°
